CW1459 Weather Reports


time (UTC)temp
C
wind
direction
speed
KPH
gust
KPH
rain 1hr
cm
rain 24hr
cm
rain mn
cm
humidity
%
barometer
mb
20260901153324 30 271 4.8 16.1 0.00 0.00 0.00 70 1015.5
20260901152312 30 217 8.0 12.9 0.00 0.00 0.00 68 1015.4
20260901151313 30 179 4.8 9.7 0.00 0.00 0.00 73 1015.4
20260901150335 28 208 4.8 9.7 0.00 0.00 0.00 76 1015.5
20260901145328 28 227 3.2 8.0 0.00 0.00 0.00 73 1015.6
20260901144319 28 175 6.4 9.7 0.00 0.00 0.00 73 1015.5
20260901143349 28 116 4.8 14.5 0.00 0.00 0.00 75 1015.7
20260901142312 28 244 4.8 14.5 0.00 0.00 0.00 75 1015.8
20260901141337 27 189 4.8 9.7 0.00 0.00 0.00 80 1015.8
20260901140335 26 209 3.2 8.0 0.00 0.00 0.00 81 1015.8
20260901135318 26 158 3.2 9.7 0.00 0.00 0.00 80 1015.9
20260901134312 26 178 4.8 8.0 0.00 0.00 0.00 81 1016.0
20260901133320 26 164 3.2 8.0 0.00 0.00 0.00 80 1016.0
20260901132331 26 180 4.8 8.0 0.00 0.00 0.00 81 1016.0
20260901131313 26 224 3.2 8.0 0.00 0.00 0.00 84 1016.0
20260901130334 25 126 4.8 9.7 0.00 0.00 0.00 87 1016.0
20260901125314 24 151 1.6 3.2 0.00 0.00 0.00 88 1016.2
20260901124315 24 204 1.6 3.2 0.00 0.00 0.00 88 1016.4
20260901123352 24 165 3.2 4.8 0.00 0.00 0.00 89 1016.3
20260901122314 23 170 3.2 4.8 0.00 0.00 0.00 90 1016.4
20260901121337 23 157 1.6 4.8 0.00 0.00 0.00 91 1016.4
20260901120316 23 202 1.6 4.8 0.00 0.00 0.00 92 1016.3
20260901115358 23 202 1.6 3.2 0.00 0.00 0.00 92 1016.3
20260901114314 22 202 0.0 3.2 0.00 0.00 0.00 92 1016.2
20260901113334 22 202 1.6 4.8 0.00 0.00 0.00 92 1016.2
20260901112352 22 150 0.0 0.0 0.00 0.00 0.00 92 1016.0
20260901111312 22 150 0.0 1.6 0.00 0.00 0.00 92 1015.8
20260901110313 22 150 0.0 3.2 0.00 0.00 0.00 91 1015.8
20260901105313 22 167 1.6 4.8 0.00 0.00 0.00 91 1015.7
20260901104339 22 167 1.6 3.2 0.00 0.00 0.00 90 1015.8
20260901103321 22 167 1.6 3.2 0.00 0.00 0.00 90 1015.6
20260901102314 22 167 0.0 1.6 0.00 0.00 0.00 90 1015.6
20260901101340 23 167 0.0 1.6 0.00 0.00 0.00 89 1015.6
20260901100312 23 167 0.0 1.6 0.00 0.00 0.00 89 1015.7
20260901095337 23 167 0.0 3.2 0.00 0.00 0.00 89 1015.7
20260901094312 23 167 0.0 4.8 0.00 0.00 0.00 89 1015.7
20260901093313 23 192 1.6 3.2 0.00 0.00 0.00 89 1015.7
20260901092342 23 180 3.2 6.4 0.00 0.00 0.00 89 1015.6
20260901091316 23 165 3.2 6.4 0.00 0.00 0.00 89 1015.6
20260901090402 23 184 3.2 8.0 0.00 0.00 0.00 89 1015.5
20260901085329 23 200 1.6 6.4 0.00 0.00 0.00 90 1015.5
20260901084332 23 153 1.6 6.4 0.00 0.00 0.00 90 1015.5
20260901083328 23 169 3.2 4.8 0.00 0.00 0.00 90 1015.5
20260901082344 23 190 0.0 3.2 0.00 0.00 0.00 90 1015.9
20260901081333 23 190 0.0 3.2 0.00 0.00 0.00 90 1015.9
20260901080347 23 190 0.0 0.0 0.00 0.00 0.00 90 1015.9
20260901075330 23 190 0.0 4.8 0.00 0.00 0.00 90 1015.9
20260901074318 23 186 3.2 8.0 0.00 0.00 0.00 90 1015.8
20260901073331 23 213 0.0 3.2 0.00 0.00 0.00 90 1015.7
20260901072316 23 169 1.6 3.2 0.00 0.00 0.00 91 1015.6
20260901071323 23 210 3.2 4.8 0.00 0.00 0.00 91 1015.6
20260901070336 23 215 1.6 4.8 0.00 0.00 0.00 92 1015.7
20260901065318 23 188 1.6 4.8 0.00 0.00 0.00 93 1015.6
20260901064316 22 169 1.6 4.8 0.00 0.00 0.00 93 1015.9
20260901063317 22 213 3.2 8.0 0.00 0.00 0.00 93 1016.0
20260901062336 22 169 1.6 3.2 0.00 0.00 0.00 93 1016.2
20260901061318 22 169 0.0 1.6 0.00 0.00 0.00 93 1016.3
20260901060318 22 169 0.0 1.6 0.00 0.00 0.00 92 1016.3
20260901055315 22 169 1.6 3.2 0.00 0.00 0.00 92 1016.4
20260901054337 22 169 0.0 1.6 0.00 0.00 0.00 92 1016.5
20260901053316 23 169 0.0 1.6 0.00 0.00 0.00 92 1016.5
20260901052318 23 169 0.0 0.0 0.00 0.00 0.00 92 1016.4
20260901051317 23 169 0.0 1.6 0.00 0.00 0.00 92 1016.5
20260901050336 23 169 0.0 1.6 0.00 0.00 0.00 92 1016.5
20260901045339 23 169 0.0 0.0 0.00 0.00 0.00 92 1016.4
20260901044339 23 169 0.0 0.0 0.00 0.00 0.00 91 1016.3
20260901043328 23 169 0.0 1.6 0.00 0.00 0.00 91 1016.4
20260901042334 23 169 0.0 4.8 0.00 0.00 0.00 91 1016.4
20260901041326 23 169 0.0 3.2 0.00 0.00 0.00 91 1016.5
20260901040353 23 164 1.6 3.2 0.00 0.00 0.00 91 1016.6
20260901035320 22 219 0.0 1.6 0.00 0.00 0.00 91 1016.7
20260901034316 22 219 0.0 1.6 0.00 0.00 0.00 91 1016.9
20260901033353 22 219 0.0 1.6 0.00 0.00 0.00 91 1016.9
20260901032334 22 297 0.0 0.0 0.00 0.00 0.00 91 1017.0
20260901031336 22 297 0.0 1.6 0.00 0.00 0.00 91 1017.0
20260901030336 22 297 0.0 0.0 0.00 0.00 0.00 90 1017.0
20260901025340 22 297 0.0 0.0 0.00 0.00 0.00 90 1017.1
20260901024334 22 297 0.0 1.6 0.00 0.00 0.00 90 1017.2
20260901023336 22 297 0.0 1.6 0.00 0.00 0.00 90 1017.2
20260901022314 22 297 0.0 1.6 0.00 0.00 0.00 90 1017.3
20260901021314 22 297 0.0 1.6 0.00 0.00 0.00 89 1017.3
20260901020338 22 297 0.0 1.6 0.00 0.00 0.00 89 1017.1
20260901015329 22 297 0.0 1.6 0.00 0.00 0.00 88 1017.1
20260901014336 23 297 0.0 1.6 0.00 0.00 0.00 87 1017.1
20260901013316 23 297 0.0 1.6 0.00 0.00 0.00 86 1017.0
20260901012317 23 297 0.0 1.6 0.00 0.00 0.00 86 1016.8
20260901011321 23 297 0.0 4.8 0.00 0.00 0.00 85 1016.7
20260901010332 23 242 1.6 4.8 0.00 0.00 0.00 84 1016.6
20260901005321 23 188 1.6 4.8 0.00 0.00 0.00 84 1016.3
20260901004357 23 160 4.8 8.0 0.00 0.00 0.00 84 1016.3
20260901003358 24 163 0.0 1.6 0.00 0.00 0.00 83 1016.4
20260901002316 24 163 0.0 9.7 0.00 0.00 0.00 83 1016.4
20260901001342 24 154 6.4 12.9 0.00 0.00 0.00 82 1016.4
20260901000336 24 121 3.2 6.4 0.00 0.00 0.00 81 1016.4
20260831235341 24 111 3.2 9.7 0.00 0.00 0.00 80 1016.4
20260831234315 25 110 4.8 11.3 0.00 0.00 0.00 79 1016.6
20260831233317 25 82 8.0 20.9 0.00 0.00 0.00 77 1017.0
20260831232341 26 54 3.2 27.4 0.00 0.00 0.00 74 1017.1
20260831231315 27 319 4.8 6.4 0.00 0.00 0.00 77 1017.1
20260831230333 27 238 1.6 3.2 0.00 0.00 0.00 78 1016.7
20260831225335 27 143 3.2 6.4 0.00 0.00 0.00 75 1016.8
20260831224331 28 161 3.2 11.3 0.00 0.00 0.00 74 1016.7
20260831223335 28 173 6.4 11.3 0.00 0.00 0.00 74 1016.6
20260831222333 28 162 4.8 11.3 0.00 0.00 0.00 75 1016.8
20260831221333 28 183 4.8 12.9 0.00 0.00 0.00 73 1016.8
20260831220315 28 161 4.8 8.0 0.00 0.00 0.00 74 1017.0
20260831215314 28 186 4.8 12.9 0.00 0.00 0.00 74 1016.9
20260831214337 28 161 4.8 9.7 0.00 0.00 0.00 73 1016.9
20260831213359 28 175 3.2 9.7 0.00 0.00 0.00 74 1017.0
20260831212357 27 126 3.2 8.0 0.00 0.00 0.00 75 1017.1
20260831211313 27 146 8.0 12.9 0.00 0.00 0.00 75 1017.1
20260831210321 27 157 4.8 8.0 0.00 0.00 0.00 77 1017.1
20260831205350 27 184 3.2 8.0 0.00 0.00 0.00 77 1017.3
20260831204332 27 132 3.2 4.8 0.00 0.00 0.00 79 1017.3
20260831203357 27 161 1.6 4.8 0.00 0.00 0.00 80 1017.4
20260831202321 27 130 3.2 4.8 0.00 0.00 0.00 78 1017.6
20260831201315 27 136 3.2 6.4 0.00 0.00 0.00 77 1017.6
20260831200313 27 128 3.2 6.4 0.00 0.00 0.00 77 1017.6
20260831195336 27 159 3.2 6.4 0.00 0.00 0.00 76 1017.7
20260831194313 27 136 3.2 8.0 0.00 0.00 0.00 75 1017.8
20260831193334 27 133 1.6 4.8 0.00 0.00 0.00 74 1017.8
20260831192315 28 127 3.2 11.3 0.00 0.00 0.00 72 1017.8
20260831191316 28 159 6.4 11.3 0.00 0.00 0.00 72 1017.9
20260831190318 28 148 6.4 9.7 0.00 0.00 0.00 74 1018.0
20260831185314 27 166 4.8 8.0 0.00 0.00 0.00 74 1018.1
20260831184337 27 99 6.4 11.3 0.00 0.00 0.00 75 1018.1
20260831183317 27 198 3.2 11.3 0.00 0.00 0.00 77 1018.1
20260831182319 27 134 4.8 8.0 0.00 0.00 0.00 75 1018.1
20260831181313 27 200 1.6 4.8 0.00 0.00 0.00 75 1018.4
20260831180315 27 252 3.2 4.8 0.00 0.00 0.00 73 1018.3
20260831175318 27 132 0.0 8.0 0.00 0.00 0.00 73 1018.4
20260831174322 27 144 3.2 9.7 0.00 0.00 0.00 72 1018.4
20260831173328 27 221 3.2 6.4 0.00 0.00 0.00 70 1018.4
20260831172336 27 204 3.2 8.0 0.00 0.00 0.00 70 1018.5
20260831171335 27 172 3.2 9.7 0.00 0.00 0.00 73 1018.4
20260831170313 28 170 4.8 9.7 0.00 0.00 0.00 71 1018.4
20260831165359 28 141 3.2 9.7 0.00 0.00 0.00 69 1018.5
20260831164329 27 200 1.6 4.8 0.00 0.00 0.00 74 1018.5
20260831163356 27 293 4.8 8.0 0.00 0.00 0.00 73 1018.7
20260831162315 27 286 3.2 6.4 0.00 0.00 0.00 73 1018.8
20260831161317 26 289 3.2 6.4 0.00 0.00 0.00 74 1018.8
20260831160359 26 268 0.0 4.8 0.00 0.00 0.00 74 1018.5
20260831155317 26 292 3.2 6.4 0.00 0.00 0.00 74 1018.7
20260831154335 27 290 3.2 6.4 0.00 0.00 0.00 73 1018.6